Location: Newark
(7.0858°N, 171.3717°E)
Time: 00:51:57
(UTC+00:00)

Transit 4A - Pass Details

Date: 02 December 2020
Orbit: 864 x 980 km, 66.8° (Epoch: 20 January)

Event Time Altitude Azimuth Distance (km) Brightness Sun altitude
Rises 07:09:51 0° 311° (NW) 3,578 11.4 -13.2°
Reaches altitude 10° 07:13:18 10° 292° (WNW) 2,612 10.9 -14.0°
Maximum altitude 07:17:06 17° 253° (WSW) 2,108 10.9 -14.9°
Drops below altitude 10° 07:20:52 10° 213° (SSW) 2,563 11.0 -15.8°
Sets 07:24:14 0° 193° (SSW) 3,483 11.4 -16.6°
